Theta_e
317 315 315 315 315 316 316 317 318 318 318 320 321 321 320 321 320 320 322 324 324 322 321 318 316 315 314 313 313 311 311 311 311 312 311 311 311 312 314 315 315 316 318 320 323 324 324 325 326 326 327 327 327 328 329 329 327 325 325 326 326 327 325 323 325 325 322 321 321 321 320 320 321 320 317 316 314 313 315 316 315 315 315 314 315 315 315
317 315 315 315 315 315 315 316 316 317 317 318 318 319 318 319 322 321 321 323 319 314 313 313 312 312 311 311 310 310 310 310 310 310 310 309 309 310 311 313 313 313 314 317 320 321 321 322 324 325 326 326 326 327 328 329 329 327 326 326 327 326 325 324 325 324 321 320 321 320 320 320 320 319 316 314 312 311 315 317 314 315 316 316 316 316 316
318 316 315 315 315 315 315 315 314 315 317 317 317 317 317 318 321 321 321 322 316 310 310 311 310 310 310 309 309 309 309 309 309 308 308 308 307 308 308 310 311 312 312 315 317 318 319 320 321 323 325 325 325 327 328 328 329 328 326 326 326 325 325 325 324 323 321 321 320 320 320 320 319 317 316 315 312 310 312 314 314 313 315 316 316 317 315
318 317 316 316 315 315 316 314 313 313 315 316 316 316 316 317 319 320 321 322 316 310 310 310 309 310 309 308 308 308 307 307 307 307 306 306 306 306 307 308 309 310 310 312 315 316 318 319 319 320 322 324 325 326 327 327 327 327 326 326 325 325 325 324 323 321 321 321 320 320 320 319 318 317 317 316 315 310 309 312 313 312 313 314 314 314 314
317 317 317 317 316 316 317 313 310 311 312 313 315 316 315 314 315 318 320 319 313 310 310 310 309 308 307 306 306 306 307 306 306 306 306 305 305 305 305 306 307 308 308 309 312 315 317 319 318 319 321 323 324 324 325 325 326 326 325 324 325 325 323 322 322 321 320 321 320 320 320 319 318 318 318 317 315 310 309 311 312 312 313 315 315 314 314
316 317 317 317 317 318 315 310 308 310 311 311 313 314 312 312 314 316 316 314 311 310 311 309 307 306 305 304 304 305 305 306 305 305 305 305 305 305 305 305 306 307 307 308 309 312 315 317 315 316 319 321 322 322 322 322 323 324 324 323 323 323 322 321 320 319 319 320 320 319 319 318 318 318 318 316 314 311 309 311 312 313 314 315 317 316 315
316 316 316 318 318 315 311 309 307 308 310 309 310 312 311 310 312 314 313 312 311 310 309 307 305 304 303 303 303 303 304 304 305 305 305 305 305 305 304 304 305 306 308 308 308 309 312 314 313 313 315 318 319 319 319 320 321 321 322 322 321 322 321 320 319 319 319 319 319 319 318 318 318 317 316 314 314 311 309 310 312 313 314 315 317 317 316
315 315 316 317 315 312 310 309 307 307 309 308 309 312 312 309 309 311 311 310 309 308 306 305 304 303 303 303 302 302 303 303 304 304 305 305 305 305 304 304 305 306 308 309 309 309 310 311 312 312 314 315 317 317 316 318 319 319 320 321 320 320 320 320 319 318 318 318 318 318 318 317 317 316 314 313 313 312 311 311 312 314 314 315 317 318 318
314 314 315 314 312 312 310 309 307 306 306 306 307 310 311 308 308 310 308 307 307 306 305 304 304 305 305 304 302 301 302 303 303 303 304 304 304 305 304 304 305 307 307 308 309 309 309 310 310 310 311 313 315 315 314 315 315 316 317 318 318 318 318 318 317 317 316 317 317 317 317 316 316 315 314 313 313 312 313 314 315 316 316 317 317 318 318
313 314 315 314 314 314 310 307 306 305 305 305 304 308 310 307 307 308 307 306 305 305 305 305 305 307 306 304 301 301 301 302 302 302 303 303 304 304 304 304 304 305 306 307 308 308 309 309 309 309 310 311 313 313 312 312 312 313 313 313 313 314 314 314 315 315 315 315 315 315 315 316 315 315 314 314 314 314 315 316 316 316 317 318 318 318 319
313 314 314 314 314 313 308 306 306 305 305 304 304 309 311 306 305 307 306 305 305 304 305 305 307 308 306 302 300 300 300 301 302 303 303 302 303 303 304 304 304 304 305 306 306 307 308 308 308 308 309 310 311 311 310 311 311 311 311 311 311 312 312 312 313 313 314 314 314 314 315 315 315 315 314 315 314 314 315 315 315 315 315 316 316 317 317
312 312 313 311 310 309 306 304 305 305 304 304 307 314 312 305 304 306 305 305 305 304 305 305 304 305 304 301 299 300 300 300 301 302 303 303 303 303 303 304 304 304 305 305 305 306 306 306 307 307 308 309 310 309 309 309 309 309 309 309 310 311 311 311 312 312 313 313 313 314 314 313 313 312 313 314 314 314 315 315 315 315 314 315 315 315 315
311 311 311 310 308 307 305 304 304 304 305 307 311 313 308 304 304 305 304 304 305 304 304 303 301 300 301 300 299 299 300 300 300 300 301 302 302 303 303 303 303 302 302 302 303 303 303 304 304 305 306 307 306 306 306 305 305 305 305 306 307 308 308 308 308 309 310 310 311 312 312 312 310 309 308 309 309 310 312 313 312 311 311 312 313 313 313
311 311 311 310 309 306 303 304 305 305 307 310 309 306 304 304 304 304 303 303 303 302 301 300 298 299 299 299 299 299 300 300 300 300 300 300 300 300 301 301 300 300 300 300 300 300 300 301 301 302 303 303 302 301 301 300 299 299 300 301 302 302 303 303 303 303 303 303 304 305 307 308 307 305 305 304 304 304 305 305 305 305 305 306 307 307 308
310 310 310 310 309 306 303 304 305 305 307 307 305 303 304 304 303 302 301 300 300 300 299 298 298 299 299 299 299 300 300 300 300 300 300 300 300 299 299 299 299 299 299 299 299 299 299 299 299 299 300 300 299 299 298 297 297 297 297 297 298 298 299 299 299 299 299 299 299 299 300 301 301 300 300 301 301 300 301 300 300 300 300 300 301 301 302
308 309 308 307 306 304 302 303 304 304 304 304 303 303 304 302 301 300 300 299 299 299 299 299 299 299 299 299 299 300 300 300 300 300 300 300 299 299 299 299 299 299 299 299 299 299 299 299 298 298 298 298 298 297 297 296 296 296 296 296 297 297 297 297 297 297 297 298 298 298 298 298 298 298 298 298 298 298 299 298 299 299 298 299 299 299 299
306 306 305 304 303 302 303 303 303 303 303 304 304 304 303 301 300 300 300 299 299 299 299 300 300 299 299 299 299 300 300 300 300 300 300 300 300 299 299 299 299 299 299 299 299 299 299 299 298 297 297 297 297 296 296 295 296 296 296 296 296 296 296 297 297 297 297 297 297 297 297 297 297 298 298 298 298 298 298 298 298 298 298 298 298 298 298
304 304 303 303 304 304 304 303 303 304 304 304 304 303 302 301 301 301 300 300 300 300 299 299 299 299 299 299 299 299 299 299 299 300 300 300 300 299 299 299 299 299 299 299 299 299 299 299 299 298 297 297 296 296 296 296 296 296 296 296 296 296 296 296 296 296 296 296 296 297 297 297 297 297 297 297 297 298 298 298 298 298 298 298 298 298 298
305 305 304 305 305 305 304 304 304 304 304 304 304 303 302 301 301 301 300 300 300 299 299 299 299 299 299 299 299 299 298 298 299 299 300 300 300 300 300 300 300 300 300 299 299 299 299 299 299 298 298 297 297 296 296 297 297 296 296 296 296 296 296 296 296 296 296 296 296 296 296 296 297 297 297 297 297 297 297 297 297 297 297 297 297 297 298
305 305 305 305 305 304 304 304 304 304 304 304 303 303 302 302 302 301 301 300 300 300 299 299 299 299 299 299 299 299 299 299 299 299 299 299 298 298 299 299 300 300 300 300 299 299 299 299 299 299 299 299 298 297 297 297 297 296 296 296 296 296 296 296 295 295 296 296 296 296 296 296 296 297 297 297 297 297 297 297 297 297 297 297 297 297 297
304 304 305 304 304 303 303 304 303 304 304 304 303 303 303 302 302 301 301 301 300 300 300 300 300 300 299 300 300 300 299 299 299 299 299 298 297 297 297 298 299 299 299 299 299 299 299 299 299 299 299 299 299 298 298 298 297 296 296 296 296 296 296 296 296 295 295 296 296 296 296 296 296 296 296 296 296 297 297 297 296 296 296 296 296 296 296
303 304 304 304 303 303 303 303 303 303 303 303 303 303 303 303 302 302 302 302 301 301 300 300 300 299 299 299 300 300 299 299 299 298 298 298 298 297 296 297 298 298 298 299 299 298 298 298 298 298 298 298 299 298 298 298 298 297 297 297 298 297 297 296 296 296 296 296 296 296 296 297 298 297 296 296 296 296 296 296 296 296 296 296 296 296 296
303 304 304 304 303 303 303 303 303 303 303 302 302 303 303 303 303 302 302 302 302 301 301 300 300 300 299 299 299 299 298 298 298 298 298 298 298 298 297 298 298 298 298 298 298 297 296 296 297 297 298 298 298 298 298 298 297 297 298 298 299 298 297 296 295 296 297 296 296 296 297 297 298 298 298 297 296 296 295 296 296 296 296 296 297 297 297
303 303 303 303 303 303 302 302 302 302 302 302 301 301 302 302 302 302 302 302 302 302 301 301 301 301 300 300 300 299 299 298 298 298 298 298 298 298 298 298 298 298 298 298 298 297 296 295 296 296 297 298 298 298 297 297 297 298 298 298 298 299 298 296 295 296 297 297 297 297 297 297 298 298 298 298 298 297 296 296 296 297 297 297 298 298 298
303 303 303 303 302 302 302 302 302 302 302 302 301 300 300 301 301 301 301 301 302 302 301 301 301 301 301 301 300 299 299 299 298 298 298 298 297 297 298 298 298 298 298 297 297 296 296 296 296 296 297 298 298 298 298 298 298 298 298 298 298 298 298 298 297 297 297 297 297 297 298 298 298 298 298 298 298 298 298 297 297 297 297 297 298 298 298
302 302 302 302 302 302 302 301 301 301 301 301 300 300 299 299 299 300 301 300 301 301 301 301 301 301 300 300 300 299 299 298 297 297 297 298 297 297 297 297 297 297 297 296 296 296 296 296 296 296 297 297 298 298 298 298 298 298 298 298 298 297 297 297 297 297 297 297 297 297 297 297 297 297 297 297 298 298 298 298 298 298 297 297 297 297 297
302 302 302 302 301 301 301 301 300 300 300 300 299 299 299 298 298 299 299 299 299 300 300 300 300 300 300 299 299 299 298 297 297 297 297 297 297 297 297 297 297 297 297 296 296 296 295 295 296 296 296 298 298 298 298 298 298 298 298 298 298 297 296 296 297 297 297 297 297 297 297 297 297 297 297 297 297 297 297 298 298 298 298 297 297 297 297
301 301 301 301 301 300 300 300 300 300 300 299 299 299 298 298 298 298 298 298 298 298 298 298 298 299 299 299 299 298 298 297 297 297 297 297 297 296 296 296 296 297 297 296 296 296 295 295 296 295 296 297 298 297 297 298 298 298 298 298 298 298 297 297 297 297 297 297 297 296 296 297 297 297 297 297 297 297 297 297 297 298 298 297 297 296 296
300 300 300 300 300 300 300 300 300 300 299 299 299 299 298 298 298 298 298 298 298 298 298 298 298 298 299 299 298 298 298 297 297 297 297 297 296 295 295 295 295 296 296 296 296 296 296 296 295 295 295 297 298 297 297 298 298 298 298 298 298 298 297 297 297 297 297 297 296 295 296 296 297 297 297 297 297 297 297 296 296 297 297 297 296 296 296
300 300 300 299 299 300 300 300 299 299 299 299 299 298 298 298 298 298 298 298 298 298 298 298 298 298 298 298 298 297 297 297 297 297 296 296 295 294 295 295 295 295 296 296 296 296 296 296 295 295 295 296 297 298 297 297 298 298 298 298 298 297 296 296 296 296 297 297 296 295 296 297 297 297 297 296 296 296 297 296 296 296 297 296 296 296 296
301 301 300 300 299 299 299 299 299 299 299 299 299 299 298 298 298 298 298 298 298 298 298 298 298 298 298 298 298 297 297 296 296 296 295 295 295 295 294 294 294 294 295 295 295 296 296 295 296 295 294 295 297 297 297 297 298 298 298 298 297 297 296 295 294 295 296 296 296 296 296 296 297 296 296 296 296 296 296 296 296 296 296 296 295 295 295
300 300 300 300 299 299 299 299 299 299 299 299 299 299 299 298 298 298 298 298 298 298 298 298 298 298 298 298 297 296 295 295 295 295 295 295 294 294 293 293 294 294 294 295 294 294 294 295 295 295 294 294 296 297 297 297 297 298 298 298 298 297 296 295 294 295 296 296 296 296 296 296 296 297 296 296 295 295 295 296 295 295 295 296 295 295 295
300 300 300 299 299 299 299 299 299 299 299 299 298 298 298 298 298 298 298 298 298 298 298 298 298 298 298 297 296 295 295 295 295 295 295 294 293 292 293 294 295 295 295 295 295 295 294 294 294 294 294 294 295 297 297 297 297 298 298 298 298 297 296 294 294 295 296 296 296 296 296 295 296 296 296 295 295 295 295 295 295 295 295 295 295 295 295
300 300 300 300 300 299 299 299 299 299 298 298 298 298 298 298 298 298 298 298 298 298 298 298 297 297 296 296 295 295 295 295 295 295 295 294 293 292 293 295 295 295 295 295 295 295 295 294 294 294 293 293 295 296 297 297 297 297 297 297 298 297 296 295 295 295 296 296 296 296 296 296 296 296 296 295 294 294 294 294 295 295 295 295 295 295 295
299 299 299 299 300 299 299 299 299 299 298 298 298 298 298 298 298 298 298 298 298 298 298 297 297 296 296 296 296 295 295 295 295 295 295 294 293 292 294 295 295 295 295 296 295 295 295 295 295 295 293 293 294 296 297 297 297 297 297 297 297 297 296 295 295 295 296 296 296 296 296 296 295 295 295 295 294 294 294 294 294 294 294 294 294 294 294
299 299 299 299 299 299 299 299 299 299 298 298 298 298 298 298 298 298 298 298 298 298 297 297 296 296 296 296 296 295 295 295 295 294 294 294 292 291 292 294 294 295 296 296 295 295 295 295 295 295 294 293 294 296 297 297 297 297 297 297 297 296 296 295 295 295 295 295 295 295 295 295 295 295 294 294 294 294 294 294 294 294 294 294 294 294 294
299 299 299 299 299 299 299 299 299 298 299 298 298 298 298 298 298 298 298 298 298 297 297 297 297 296 296 296 296 295 295 295 295 294 294 294 292 291 290 292 293 295 296 296 296 295 295 294 295 295 294 293 295 296 297 297 297 297 297 297 297 296 296 295 295 295 295 295 295 295 295 295 295 294 294 294 294 294 294 294 294 294 294 293 293 293 293
299 299 299 299 298 298 299 298 298 298 298 298 298 298 298 298 298 298 298 298 298 297 296 296 296 296 296 296 296 296 295 295 295 294 294 293 292 291 290 291 293 295 296 296 296 295 295 294 295 295 294 295 296 297 297 297 297 297 297 297 297 296 296 295 295 295 295 295 295 295 295 295 295 294 294 294 294 294 294 294 294 293 294 293 293 293 293
299 299 299 299 299 299 298 298 298 298 298 298 298 298 298 298 298 298 298 298 298 297 296 296 296 296 296 296 296 296 296 295 295 294 294 293 292 291 291 292 293 294 295 296 296 296 296 296 295 296 296 297 297 297 297 297 297 296 296 297 296 296 295 295 294 294 294 294 295 295 295 295 295 294 294 294 294 294 293 293 293 293 293 293 293 293 293
299 299 299 299 299 299 299 299 298 298 298 298 298 298 298 298 298 298 298 298 298 297 296 297 297 297 297 297 296 296 296 296 295 295 294 293 292 292 292 293 294 293 294 296 297 296 296 297 297 297 297 297 296 296 296 295 295 295 296 296 296 296 296 295 294 294 294 294 295 295 295 294 294 294 293 293 294 293 293 293 293 293 294 294 293 293 293
299 299 299 299 299 299 299 299 299 298 298 298 298 298 298 298 298 298 298 298 298 297 297 297 297 297 297 297 297 297 296 296 295 295 294 293 293 293 293 293 293 293 293 294 296 297 297 297 297 296 295 294 294 293 292 292 293 295 295 295 296 296 295 295 294 294 294 294 294 295 295 294 294 294 293 293 293 293 293 294 293 293 293 293 293 293 293
299 299 299 299 299 299 299 299 299 299 298 298 298 298 298 298 298 298 298 298 298 298 297 297 297 297 297 297 297 297 297 296 295 295 294 294 294 293 293 293 293 292 291 292 294 295 296 296 296 295 293 293 293 292 291 291 293 294 295 295 295 296 295 295 294 294 294 294 294 294 294 294 294 294 293 293 293 293 293 294 294 294 293 293 293 293 292
299 299 299 299 299 299 299 299 299 298 298 298 298 298 298 297 297 297 298 298 298 297 297 297 297 297 297 297 297 297 297 296 296 295 294 294 294 293 293 292 293 292 291 291 292 293 294 295 295 294 294 293 293 293 291 291 292 294 294 295 295 295 295 295 295 294 294 294 294 294 294 294 294 294 293 293 293 293 293 293 294 293 293 293 293 293 292
299 299 299 299 299 299 299 299 299 299 298 298 298 298 297 297 297 297 297 297 298 297 297 297 297 297 297 297 297 297 297 297 296 296 295 295 295 294 293 292 291 291 291 291 291 292 292 293 293 294 293 294 293 292 291 291 292 293 294 294 295 295 295 295 295 294 294 294 294 294 294 294 294 294 293 293 293 293 293 293 293 293 293 293 293 293 292
299 299 299 299 298 299 299 298 298 298 298 298 298 298 297 298 298 298 297 297 297 297 297 297 298 298 298 297 297 297 297 297 296 296 295 295 295 295 294 292 291 291 291 291 291 291 292 292 292 292 293 293 293 292 291 291 292 293 293 294 295 295 295 295 295 294 294 294 294 293 293 293 294 294 294 293 293 293 293 293 293 293 293 293 293 292 292
299 299 299 298 298 299 299 298 298 298 298 298 298 298 298 298 298 298 298 298 297 297 297 298 297 298 298 297 297 297 297 297 296 296 295 295 295 295 294 292 291 291 291 291 291 291 291 291 290 291 291 292 292 292 292 292 292 292 292 293 294 295 295 295 295 294 294 294 294 293 293 293 293 294 293 293 293 293 293 293 293 293 293 293 292 292 292
299 299 299 298 298 298 298 298 298 298 298 298 298 298 298 298 298 298 298 298 297 297 297 298 298 297 297 297 297 297 297 296 296 296 296 295 295 294 293 292 290 290 291 291 291 291 291 290 289 289 290 291 291 292 292 292 292 292 292 292 293 294 295 295 295 294 294 294 293 292 291 291 291 292 293 293 293 293 293 292 293 293 293 292 292 292 291
298 298 298 298 298 298 298 298 298 298 298 298 298 298 298 298 298 297 297 298 297 297 297 298 298 297 297 296 296 296 296 296 296 296 296 295 295 294 294 292 290 289 289 290 290 289 289 288 288 288 289 290 291 292 292 292 292 291 291 291 292 293 294 295 294 295 295 294 292 292 291 290 290 291 292 292 293 293 293 292 293 293 293 292 292 292 292
298 298 298 298 298 298 298 298 298 297 297 297 297 297 297 297 297 297 297 297 297 298 298 298 298 297 297 296 296 296 296 296 296 296 295 295 295 295 293 292 291 290 290 289 289 288 287 288 288 287 288 289 291 292 292 291 291 290 289 290 291 293 294 294 294 294 294 294 293 293 292 292 291 291 291 292 292 293 292 292 292 292 292 292 292 291 291
298 298 298 298 298 298 298 297 297 297 297 297 297 297 297 297 297 297 297 297 298 298 298 298 297 297 297 297 296 296 296 296 296 296 295 296 296 295 294 292 292 292 292 291 290 289 288 288 288 287 287 287 288 289 289 289 289 288 288 289 291 293 294 294 294 294 294 293 293 293 293 292 292 291 290 291 292 292 292 292 292 291 291 291 291 291 291
298 298 297 297 297 297 297 297 297 297 297 297 297 297 297 297 297 297 297 297 297 297 297 297 297 297 297 297 297 296 296 296 296 296 296 296 296 295 294 293 292 292 292 293 292 291 290 289 288 288 287 287 287 287 287 287 287 288 290 291 292 293 293 292 292 292 291 291 291 292 292 292 292 291 290 290 291 291 291 291 291 290 290 291 291 290 290
297 296 296 296 297 297 297 296 296 296 297 297 297 297 297 297 297 297 297 297 297 297 297 297 297 297 297 297 296 296 296 295 295 295 296 296 295 295 294 293 292 292 292 292 292 292 292 292 291 289 288 287 287 287 287 287 287 288 289 290 290 290 289 289 288 288 288 288 289 290 291 292 292 291 291 291 291 290 290 290 290 290 290 290 290 290 290
Wind_Speed
4 2 2 2 1 1 3 5 6 6 7 6 4 3 5 6 4 2 4 6 4 6 8 8 8 7 7 7 8 8 9 9 9 9 10 11 11 10 9 8 8 7 5 1 6 10 10 12 17 20 22 26 28 26 26 29 30 28 27 27 25 24 24 24 24 23 20 19 20 20 19 20 20 19 17 14 12 11 10 10 10 9 8 8 8 8 8
5 4 4 4 4 3 4 5 5 4 4 4 4 4 5 5 3 3 2 5 8 8 6 7 9 9 9 10 10 11 11 10 10 10 12 12 11 11 10 8 8 7 6 4 4 8 10 12 17 23 26 26 27 28 28 30 30 27 26 26 24 24 24 23 23 23 22 21 21 21 20 21 21 19 16 13 12 12 12 11 11 11 9 8 7 7 7
5 5 4 5 5 4 4 5 6 5 3 3 4 5 5 4 3 3 0 4 6 5 5 8 9 10 12 12 12 12 12 11 11 12 13 12 12 11 10 9 8 8 8 6 5 8 11 13 17 22 25 24 24 27 28 28 28 27 25 24 24 24 25 23 23 24 24 23 22 22 22 22 20 16 13 11 11 13 14 13 13 12 10 8 8 7 7
4 6 6 6 6 5 5 5 8 8 6 5 4 4 6 5 5 5 2 3 3 3 5 8 10 12 13 13 12 13 12 12 13 13 13 13 12 12 11 10 9 8 10 9 7 9 11 12 14 19 21 21 23 26 26 25 25 24 23 23 23 23 24 24 25 25 24 23 23 23 23 21 18 15 14 13 13 15 16 15 14 13 12 10 10 9 8
3 5 6 5 6 6 3 4 7 6 6 7 4 4 7 8 7 5 3 2 5 6 7 7 9 11 13 13 13 12 12 13 13 14 14 13 12 12 12 12 11 10 11 11 10 9 8 8 11 16 19 20 22 24 25 24 24 23 21 22 24 24 24 24 24 23 20 21 23 25 24 21 18 16 16 17 17 17 17 17 16 14 13 11 10 10 10
2 5 5 6 6 4 1 4 6 5 3 7 6 4 9 10 7 4 3 4 7 8 6 6 9 12 13 13 14 13 12 12 13 14 14 13 13 13 13 13 13 12 12 13 14 12 9 8 10 14 18 20 22 22 22 23 23 23 23 23 24 24 24 23 20 17 18 20 21 22 22 20 17 17 18 19 19 18 18 18 17 16 14 12 10 10 10
1 5 5 6 3 0 2 3 7 6 1 5 6 3 7 12 9 6 3 5 7 8 9 10 13 16 17 16 17 16 14 12 13 13 13 13 13 14 13 14 15 16 15 14 16 17 13 11 13 15 16 17 19 20 20 21 22 23 24 23 23 23 23 22 19 18 20 21 20 20 20 18 16 17 18 19 19 18 18 18 17 16 15 13 11 10 11
2 4 4 3 2 4 4 3 8 8 2 5 6 3 5 12 11 7 4 5 7 11 13 13 14 17 18 19 20 18 14 12 12 13 13 13 13 13 14 17 20 21 21 19 18 19 18 16 18 19 18 16 15 16 18 19 20 21 22 23 22 21 20 20 20 20 20 20 20 21 20 18 17 17 17 17 18 17 16 16 16 16 15 13 12 11 11
3 3 2 3 4 4 5 3 7 7 4 5 5 2 4 11 10 5 4 5 7 10 13 15 15 16 17 16 16 17 15 13 12 12 13 12 13 13 15 19 23 24 24 24 23 23 22 21 21 22 22 21 19 18 19 20 21 21 21 22 22 22 20 19 19 19 18 18 20 20 19 18 18 17 17 16 16 15 14 14 14 15 14 13 12 12 11
2 3 3 4 4 3 5 6 7 7 5 4 4 3 1 9 11 5 4 6 7 9 11 13 11 8 9 9 9 13 15 13 11 12 12 12 12 13 14 18 22 23 23 23 23 23 23 23 23 23 24 24 23 23 24 24 23 24 24 23 22 22 22 22 21 19 18 18 18 18 17 17 17 16 16 16 15 15 14 13 13 13 13 13 13 13 13
2 4 3 2 1 3 6 9 10 10 7 3 3 4 1 7 12 6 5 7 8 8 7 5 3 2 4 4 5 11 15 13 13 13 13 12 12 11 12 15 19 21 21 21 20 21 21 22 21 21 22 23 24 25 25 25 24 25 25 24 22 20 20 20 20 19 18 17 16 14 13 13 14 14 15 14 13 13 12 12 11 12 12 13 13 14 15
0 1 2 4 3 3 8 12 13 13 6 3 4 2 2 8 10 6 7 7 7 4 2 4 5 4 4 6 7 14 17 16 17 17 16 15 14 13 13 16 19 20 19 19 19 19 20 19 18 18 19 20 22 23 23 22 23 23 22 21 20 19 17 16 16 16 16 15 14 13 12 10 10 11 11 10 9 10 11 12 11 11 11 11 12 14 13
4 4 5 5 3 4 10 14 14 10 3 4 1 2 4 7 7 5 7 6 5 3 3 6 8 10 14 15 15 19 21 21 21 21 19 18 18 18 18 19 21 21 20 20 20 19 18 17 15 14 15 17 19 20 19 19 20 20 18 17 17 16 16 15 13 13 12 11 11 11 10 8 7 9 8 7 7 8 11 12 11 10 9 10 12 13 13
4 5 5 5 4 5 14 18 13 7 1 1 2 4 4 5 4 5 7 7 6 7 11 16 18 20 21 21 21 23 24 23 22 21 20 19 19 19 19 19 20 22 22 22 21 19 18 16 15 13 13 15 18 18 17 18 19 17 16 15 14 14 14 13 12 12 11 10 9 8 7 6 5 6 7 6 5 6 8 8 8 7 7 8 9 10 11
4 5 5 4 4 6 18 17 8 6 6 2 2 4 5 7 8 8 10 10 9 14 20 22 22 23 23 22 22 21 20 20 20 20 19 19 18 18 18 18 19 20 21 21 20 19 17 16 16 14 13 15 17 17 17 18 18 16 16 15 14 13 13 13 12 12 11 10 9 8 8 7 6 6 6 6 5 5 5 5 5 5 6 7 8 8 9
3 5 5 5 2 7 15 12 5 5 7 3 1 3 6 9 10 12 14 13 13 19 25 26 24 24 22 20 17 15 15 17 19 18 18 17 17 16 16 16 16 16 17 18 18 18 17 16 16 15 14 15 16 17 18 17 16 15 15 14 14 14 13 13 13 12 10 9 8 7 7 6 5 4 4 4 4 4 4 4 5 6 6 7 7 7 8
6 7 5 4 4 6 9 10 7 6 7 6 5 6 9 11 11 14 16 18 19 22 24 24 23 21 19 18 17 16 17 17 17 16 16 15 14 14 13 14 13 14 14 14 15 17 17 16 16 16 15 15 16 17 17 16 15 14 14 13 13 13 12 12 12 11 10 9 8 7 6 5 4 2 2 2 2 3 4 5 5 6 7 7 8 8 9
9 10 7 6 9 10 10 11 11 11 12 11 9 10 11 12 13 15 19 22 24 24 24 24 23 21 19 20 20 20 20 19 17 15 14 12 12 11 11 12 12 12 12 13 14 16 16 15 15 15 15 15 15 16 15 14 13 13 13 13 13 13 13 12 12 11 10 9 8 7 6 4 3 2 1 0 1 2 3 5 5 6 6 7 7 8 8
5 7 8 10 13 14 13 13 14 15 15 14 12 13 13 14 16 18 20 23 24 24 25 24 23 22 21 21 21 20 19 18 15 13 11 11 10 9 9 9 9 8 9 10 11 12 13 12 12 13 13 13 13 13 13 12 11 11 11 12 12 12 12 11 11 10 9 8 8 7 7 5 4 4 2 2 1 1 2 3 3 4 5 5 5 5 6
7 8 11 15 17 16 15 15 16 16 16 16 16 17 17 17 17 17 19 21 22 21 21 21 21 21 20 18 16 14 13 12 11 10 10 10 10 9 9 8 7 7 7 8 8 9 10 10 9 10 10 10 10 10 10 10 9 9 9 10 10 11 11 10 9 9 8 7 7 6 5 4 3 3 2 2 1 1 1 2 2 3 2 3 4 4 4
10 11 14 15 16 16 16 16 16 16 16 16 17 18 17 16 16 15 15 16 17 18 19 20 19 19 17 14 11 10 10 9 9 9 8 8 9 10 9 7 7 7 7 7 7 7 8 7 7 7 7 7 8 8 8 8 7 7 8 9 9 9 10 9 9 9 8 8 7 6 5 4 3 2 1 0 0 1 2 2 3 3 3 3 3 4 3
7 8 9 9 10 11 13 14 15 14 14 15 15 15 14 13 14 14 13 12 13 14 17 18 17 17 17 15 11 9 8 8 7 6 6 6 6 6 7 6 5 5 5 6 6 6 6 6 6 6 5 5 5 6 6 6 6 7 8 8 8 9 9 9 9 8 8 8 7 6 5 4 4 3 2 1 1 1 2 3 2 2 2 2 2 2 2
8 9 9 8 11 13 13 13 13 13 13 14 13 12 11 11 11 11 11 11 11 11 12 13 13 13 14 13 10 8 7 7 6 5 5 4 4 4 4 4 3 3 4 4 4 4 5 6 6 5 4 2 2 4 5 5 5 6 6 7 7 7 7 7 7 7 6 7 7 6 5 4 3 2 2 5 6 5 3 3 3 3 3 3 3 3 3
12 13 12 12 14 15 13 12 12 12 11 11 12 12 10 9 9 8 8 8 9 9 9 8 7 7 7 7 7 6 6 5 5 4 4 4 3 3 2 2 2 2 2 2 2 3 5 6 6 4 3 2 2 1 3 4 3 4 4 4 4 5 5 6 7 7 6 6 7 6 5 4 3 3 2 3 7 8 7 7 6 5 5 5 5 4 4
14 14 13 13 15 15 13 12 11 10 9 9 10 10 9 8 8 7 6 5 5 5 6 5 5 5 4 4 4 3 3 3 3 3 3 3 3 3 2 2 2 1 2 2 3 3 4 5 5 5 3 4 4 3 1 2 2 2 2 2 2 2 3 5 6 6 5 5 6 5 5 4 3 3 2 2 2 5 8 9 8 7 6 5 4 4 4
16 15 14 14 14 12 11 9 9 8 7 8 9 9 8 8 8 6 5 5 4 3 3 3 4 4 4 4 3 2 1 1 2 3 3 2 3 3 2 2 2 2 3 3 3 4 4 5 5 5 4 4 5 5 3 1 0 1 1 1 1 1 1 2 3 3 3 4 4 4 4 4 3 3 3 2 2 1 3 6 8 8 8 6 4 3 4
14 12 11 11 11 9 7 8 8 8 7 7 8 8 8 8 8 7 6 5 5 4 3 3 3 4 4 4 3 2 1 0 1 2 3 3 3 3 2 3 3 4 5 5 6 7 7 7 6 4 4 5 6 6 5 3 2 1 1 1 1 1 2 3 3 2 2 3 3 3 3 3 3 3 3 3 3 3 2 2 2 4 6 8 7 5 5
11 8 7 8 9 9 8 8 8 7 7 7 7 7 6 6 6 5 5 5 4 4 3 3 3 4 4 4 3 2 2 1 2 4 4 4 3 3 4 5 6 7 7 7 8 9 9 7 6 5 5 4 5 7 7 4 3 3 2 1 1 2 4 4 3 2 2 2 2 2 2 2 2 2 3 3 2 2 2 2 2 2 2 4 6 7 7
9 8 8 9 9 8 7 7 7 6 6 5 5 5 4 3 3 3 3 2 2 2 2 3 3 4 4 4 3 3 3 4 5 5 5 4 4 5 7 9 10 10 10 10 11 11 10 9 8 7 6 5 6 7 7 5 4 3 2 2 1 2 3 4 3 3 2 1 2 3 3 2 2 2 2 3 3 3 2 3 3 2 1 2 3 4 5
7 7 8 8 7 6 6 6 5 4 4 3 3 2 1 1 1 1 1 1 1 2 3 4 4 4 4 4 4 4 4 5 5 5 5 5 7 8 10 12 12 12 11 11 11 11 11 11 10 8 6 6 7 7 7 6 5 4 3 2 2 2 3 3 2 2 3 3 4 5 4 2 1 1 2 3 3 4 3 3 3 3 2 2 3 4 4
6 6 6 6 5 5 4 3 3 2 2 1 1 1 1 1 2 2 3 3 3 4 4 5 5 4 4 4 5 5 5 5 5 5 5 7 9 11 13 14 14 13 13 13 13 13 12 12 11 9 8 8 8 8 9 9 6 4 4 3 3 5 6 5 4 2 1 2 2 3 2 1 1 1 2 3 4 4 3 3 3 3 3 3 4 5 7
4 4 4 3 3 3 3 2 1 1 1 1 0 1 1 1 2 3 3 4 4 5 5 6 5 5 5 5 4 5 5 5 5 5 6 8 11 13 14 15 15 15 15 15 15 14 14 13 12 10 9 10 10 10 12 11 8 5 5 4 3 5 6 6 4 2 2 1 1 1 1 2 1 1 1 3 4 4 3 2 2 3 3 3 3 5 8
3 3 3 2 1 1 2 2 1 1 0 1 1 1 0 1 2 3 4 3 4 5 6 6 6 6 6 6 5 5 6 5 5 6 8 10 12 14 14 12 12 12 12 11 11 11 12 13 13 11 11 11 11 12 14 13 9 6 6 5 4 4 5 6 4 2 2 2 2 2 2 1 1 1 1 2 4 3 2 1 2 2 3 3 3 5 8
3 3 4 3 2 2 2 2 1 1 0 1 1 1 0 1 3 4 4 3 3 3 4 5 6 8 8 7 5 5 6 5 5 7 8 10 13 13 12 11 11 12 12 11 10 9 10 11 12 11 10 12 13 13 14 12 9 7 7 6 4 3 5 5 4 2 2 3 3 2 2 2 2 2 1 2 3 2 1 1 2 2 3 3 3 5 8
4 3 3 3 2 2 2 2 2 1 2 2 1 2 2 2 4 5 5 3 2 2 4 6 7 8 9 8 7 6 6 6 7 7 8 10 12 11 10 11 12 13 12 11 10 9 8 9 10 11 10 12 15 15 14 11 8 7 6 5 3 3 3 4 3 2 2 2 3 3 3 3 4 2 1 1 1 1 1 2 2 3 3 3 4 4 6
4 3 2 2 2 2 2 2 2 2 3 2 2 2 2 3 4 5 5 4 2 2 4 6 7 8 8 9 8 7 7 7 8 7 7 10 11 10 10 10 11 11 10 9 9 8 7 8 11 13 13 13 15 16 13 10 8 7 6 4 4 3 3 4 3 3 2 2 3 4 3 4 5 3 1 0 0 1 2 2 3 3 3 3 3 4 5
5 4 3 3 3 3 2 2 2 2 3 3 3 3 3 4 5 5 4 4 3 3 4 6 7 8 9 9 8 8 9 9 8 7 7 9 11 11 10 10 10 9 8 8 8 7 5 4 8 13 14 13 14 14 12 9 8 8 6 4 4 4 3 4 3 3 2 3 3 2 1 3 4 2 0 0 1 2 2 2 2 3 3 3 3 4 5
5 4 4 4 4 3 2 2 2 3 3 4 4 4 4 5 6 6 5 5 4 4 5 6 7 7 9 9 10 10 10 9 9 8 7 7 9 11 11 9 8 8 7 6 5 4 2 2 5 9 11 11 11 11 11 9 8 8 6 5 5 4 3 3 4 2 1 1 2 1 1 2 3 2 0 1 1 2 2 2 2 3 3 3 3 4 4
2 3 3 4 4 4 3 3 3 3 4 5 6 6 6 6 7 7 6 6 6 6 6 6 6 7 8 9 10 11 10 10 10 9 7 6 8 10 10 8 7 7 6 4 2 1 2 6 8 9 8 9 11 11 9 8 8 8 6 5 6 5 3 3 3 2 0 1 2 2 2 2 2 2 1 1 2 2 2 2 3 4 4 3 3 4 4
3 3 4 5 5 5 5 5 4 5 5 6 7 7 7 7 8 8 7 7 7 8 8 8 8 7 7 8 9 9 9 10 11 9 7 6 8 9 9 7 5 6 5 4 4 4 5 7 8 7 7 8 9 8 7 7 8 7 6 6 6 5 4 3 3 1 0 1 2 2 2 1 2 2 1 1 2 3 3 3 3 4 4 3 3 4 4
5 6 6 6 7 7 7 7 7 7 8 8 8 8 8 8 8 8 8 7 7 8 9 9 9 8 7 7 7 8 9 11 11 9 7 6 7 8 7 6 4 5 6 4 4 5 6 7 7 7 7 6 5 4 5 6 7 7 6 7 7 6 5 4 3 2 1 1 1 1 1 2 2 2 2 2 3 4 4 3 3 3 3 3 3 3 3
5 7 7 7 7 7 7 8 8 9 9 9 9 9 9 9 8 8 7 7 8 9 9 9 9 9 9 8 8 8 9 10 10 8 6 6 6 7 7 6 5 5 6 4 3 5 6 6 6 7 6 5 4 4 4 4 5 6 7 7 7 7 6 5 3 2 1 2 2 2 2 2 2 1 2 3 4 4 4 4 3 3 3 3 3 3 3
5 6 6 6 6 7 7 8 8 9 9 9 9 10 11 11 10 9 9 8 9 10 10 10 11 11 11 11 10 10 9 8 8 7 6 6 6 6 6 6 6 6 6 5 4 4 4 5 6 7 6 6 6 6 5 5 5 6 7 7 8 7 7 6 5 3 2 2 3 3 3 2 2 2 2 3 5 5 4 4 4 3 3 3 3 2 2
5 5 5 4 5 6 6 7 7 8 8 8 8 10 11 11 11 11 10 10 10 10 10 10 11 11 11 11 10 9 7 6 7 7 6 6 6 5 5 5 6 6 5 4 4 4 5 6 7 7 8 8 8 7 7 6 6 6 7 8 8 8 8 7 6 4 3 2 3 4 4 3 3 2 2 4 5 5 5 5 4 3 3 3 2 2 2
4 3 3 4 4 5 5 6 6 7 8 8 9 10 11 10 10 10 11 11 10 10 9 9 9 9 9 8 8 8 7 6 6 6 5 5 3 3 4 5 6 6 6 6 6 5 6 7 8 8 8 9 9 9 8 7 7 7 8 8 9 9 9 8 7 6 5 4 3 3 4 4 4 3 3 4 5 5 5 5 4 3 3 3 2 2 2
2 2 3 4 5 5 6 7 7 8 8 9 9 9 9 8 9 10 10 11 10 10 9 8 7 7 7 7 7 7 7 7 7 7 6 4 3 2 4 5 6 8 9 9 7 7 8 9 10 10 10 10 11 11 10 8 8 8 9 9 9 10 10 10 9 8 6 5 4 3 4 5 5 4 4 4 5 5 5 5 4 3 3 3 3 3 2
3 3 4 5 6 7 8 8 8 8 8 9 9 8 7 7 8 9 10 11 10 10 8 7 6 6 7 7 8 7 7 6 7 7 6 5 4 4 4 6 5 6 8 9 8 8 9 10 10 11 12 12 13 12 10 9 8 8 9 10 10 10 11 11 11 8 7 7 7 6 5 5 5 5 4 5 5 5 5 6 5 4 4 3 3 3 2
4 5 6 7 8 8 8 7 8 7 7 8 8 7 6 7 8 8 9 9 9 8 7 7 7 7 7 7 7 7 7 6 6 5 5 5 4 4 3 5 5 4 4 6 7 8 8 8 8 8 10 11 13 12 10 9 9 9 9 11 12 12 12 12 11 9 8 9 9 7 6 5 5 5 5 5 5 5 6 6 5 5 5 4 3 3 3
5 6 7 7 7 7 6 6 6 7 7 7 6 6 5 6 7 7 7 7 7 7 6 6 6 6 6 6 6 6 7 7 7 6 6 6 6 5 4 3 4 4 3 3 4 5 5 5 5 5 6 9 11 11 10 10 10 10 10 12 13 13 13 12 11 9 9 8 8 7 7 6 5 6 7 6 6 5 6 5 5 6 6 5 4 4 4
5 6 6 6 6 5 5 4 5 5 5 5 5 5 5 6 6 6 5 5 6 6 5 5 5 5 5 5 5 6 7 8 8 8 8 8 8 8 6 4 2 2 2 2 3 4 5 4 4 3 4 7 9 10 10 10 10 10 10 11 12 13 13 13 13 12 11 10 9 9 8 8 7 8 8 7 7 8 7 6 7 8 9 7 5 5 4
5 5 5 4 4 4 4 4 4 4 4 4 5 5 5 5 5 4 4 3 3 3 3 4 4 4 4 4 5 6 7 7 7 7 7 8 8 8 8 6 4 2 1 2 3 4 5 5 5 4 3 3 5 7 8 9 9 10 11 12 13 13 14 15 15 15 15 14 12 11 9 8 9 9 8 7 9 10 9 7 7 8 7 7 6 6 5
5 4 4 3 3 3 3 4 4 4 4 4 4 4 4 4 4 4 3 2 1 1 2 3 3 3 3 3 3 3 5 5 4 4 5 5 5 6 7 7 6 5 4 2 1 2 3 5 6 5 4 1 2 4 6 7 9 10 11 11 11 11 12 12 13 13 14 14 14 13 11 9 10 9 8 8 8 9 8 7 6 6 6 6 7 7 6
Wind_Direction
194 184 190 189 231 29 56 38 14 355 355 353 316 304 351 341 290 268 4 6 26 64 70 80 86 81 78 70 55 48 44 39 36 36 38 37 32 29 26 26 30 30 38 121 209 211 206 210 208 202 197 191 189 192 193 190 191 189 188 188 187 188 190 193 194 188 183 182 180 178 177 172 170 169 167 165 164 161 158 157 155 147 143 149 153 159 166
177 170 186 172 159 117 81 59 32 359 350 4 0 355 344 320 315 0 46 88 64 41 42 62 70 77 77 69 60 54 48 44 42 42 43 41 37 35 33 34 41 43 52 87 164 179 173 178 187 192 193 188 187 193 192 188 187 186 186 188 188 190 192 194 194 188 183 183 183 180 178 172 169 168 165 164 166 166 165 164 162 155 148 148 150 153 163
181 173 181 169 170 153 105 68 39 19 5 9 8 7 354 320 323 350 39 116 72 43 64 77 80 85 77 65 57 53 48 44 45 45 44 42 39 37 37 42 53 60 67 90 136 145 143 152 163 175 185 187 183 187 189 185 183 183 184 186 187 189 191 190 187 183 182 184 184 181 178 175 174 174 175 178 182 181 179 174 168 164 161 162 163 165 174
195 183 195 178 173 177 142 74 30 15 10 7 6 20 21 4 344 332 275 148 99 97 104 95 89 81 71 61 54 52 49 46 47 47 44 43 42 39 39 46 58 65 68 81 105 115 124 145 149 149 165 180 179 178 183 183 181 181 182 183 186 188 187 186 184 183 184 186 185 182 181 181 183 186 188 192 198 197 192 186 180 177 176 179 184 189 193
182 170 198 189 187 207 178 64 12 354 357 356 355 30 24 3 341 325 319 64 101 135 138 116 97 80 68 60 52 50 51 49 51 52 48 47 48 47 46 48 55 63 66 76 89 96 112 141 144 139 152 170 173 173 176 177 179 183 183 181 183 184 183 182 181 181 186 189 185 184 186 188 192 197 196 195 199 200 197 195 192 189 188 189 193 199 203
200 150 188 210 213 231 153 68 8 337 346 359 353 11 12 357 338 336 15 86 121 142 140 117 104 89 76 69 59 54 54 54 55 56 54 54 53 53 53 53 59 68 72 79 87 94 107 125 131 135 147 158 163 164 167 168 172 180 181 179 179 179 178 179 182 189 197 195 187 190 197 198 197 200 198 195 195 197 198 199 199 198 197 197 199 202 206
255 139 183 222 225 351 151 111 19 358 309 348 332 311 13 8 348 347 55 119 124 118 111 106 105 98 87 77 64 56 52 55 61 60 56 56 57 56 56 59 65 72 78 84 88 92 103 115 113 115 125 139 148 152 156 162 166 171 174 175 175 177 177 179 186 194 195 191 187 193 201 200 196 198 197 196 197 198 199 200 203 205 204 204 206 207 208
244 187 201 216 129 85 141 142 22 10 333 343 331 270 39 20 355 355 60 104 110 112 115 115 114 108 95 78 63 54 50 52 59 61 57 58 61 62 67 74 78 78 79 82 84 86 94 106 109 108 110 118 128 133 140 150 155 160 168 169 169 173 176 178 183 184 180 179 182 186 187 185 185 189 192 195 196 196 198 200 202 205 205 206 211 215 216
231 230 116 111 146 112 90 54 14 11 343 341 333 274 39 22 6 21 86 108 113 118 122 125 128 118 98 77 56 49 52 53 57 61 60 62 67 70 77 86 88 87 84 83 84 84 84 89 95 102 107 111 115 116 118 125 131 138 148 151 153 158 160 161 167 169 168 171 173 175 177 177 178 179 181 185 188 190 194 195 196 198 199 203 210 217 224
244 245 161 138 184 138 56 13 2 4 335 310 297 259 33 18 9 30 110 118 114 125 132 139 153 136 91 69 41 44 55 63 72 74 67 65 70 75 81 88 91 91 89 88 88 87 85 85 87 92 99 102 105 107 108 111 114 118 121 124 128 135 138 141 147 150 153 157 157 160 165 168 170 172 172 174 177 181 184 187 193 195 195 201 209 217 224
264 243 197 129 117 82 23 353 347 345 329 276 243 234 130 12 1 28 108 113 112 129 133 133 199 224 99 89 48 55 62 68 84 92 86 81 79 75 78 88 93 94 92 90 88 86 86 88 89 91 95 96 98 101 104 107 108 108 110 111 113 115 120 127 134 138 142 147 149 153 158 162 167 170 172 174 175 179 185 190 197 204 204 206 211 215 217
304 185 124 85 76 48 1 343 337 336 324 203 210 230 62 11 360 41 93 101 103 105 73 36 3 8 101 122 96 82 80 78 83 89 92 95 96 93 91 95 97 95 92 89 86 82 81 84 87 89 93 95 96 98 101 103 103 103 105 109 111 113 116 122 130 136 143 148 152 154 154 158 162 161 171 186 188 196 211 214 215 222 225 225 229 228 224
102 104 105 92 84 33 353 336 334 337 300 187 187 344 358 351 355 51 69 71 86 61 50 79 73 78 100 112 109 99 95 90 86 85 86 90 96 100 101 102 100 96 91 86 82 79 77 77 78 80 86 91 93 93 95 96 95 96 99 103 109 113 117 120 124 129 135 141 147 150 148 153 154 145 151 169 176 192 210 214 217 226 228 229 237 241 239
106 113 111 102 103 41 353 335 332 349 340 190 31 3 340 351 25 73 60 59 87 97 95 101 106 109 111 111 107 100 94 91 89 88 90 91 93 97 100 101 101 99 95 91 86 82 79 77 75 75 78 84 86 86 86 84 85 88 92 96 103 109 114 117 118 119 121 125 131 136 139 150 158 146 147 165 179 192 203 206 212 221 223 227 237 245 249
89 101 86 79 94 10 349 341 343 13 13 20 37 17 28 51 69 84 76 73 96 109 107 106 109 113 111 105 99 93 88 89 90 91 94 95 96 97 95 95 95 93 93 92 88 84 80 75 74 74 74 79 81 82 81 79 79 82 85 89 94 99 103 107 108 109 110 111 115 118 121 129 136 137 147 168 187 203 216 224 233 239 238 238 242 248 256
44 84 67 51 31 335 343 357 24 15 7 23 85 60 67 71 77 87 86 83 93 106 109 109 109 108 105 99 95 89 86 87 88 90 92 93 93 92 89 86 83 81 82 82 82 80 77 72 70 67 67 72 77 78 79 78 78 80 82 85 87 88 91 93 94 96 98 100 102 105 110 118 127 137 151 168 183 198 213 225 239 251 256 258 261 263 268
57 72 68 47 32 4 5 27 41 33 40 64 86 91 85 78 83 95 98 98 101 105 108 108 106 104 100 97 95 93 90 89 88 87 86 86 88 88 85 80 75 71 72 72 72 73 72 69 67 64 63 68 73 76 77 78 80 81 83 85 85 82 82 81 80 79 80 81 84 86 91 99 105 118 148 184 214 223 232 236 242 251 257 261 265 268 272
85 74 69 72 67 59 54 53 54 58 67 75 81 86 86 87 95 103 107 109 109 108 106 104 103 101 100 99 95 91 89 89 87 85 83 84 88 88 85 81 74 68 66 63 62 64 64 63 62 61 61 65 71 76 79 79 79 82 82 82 81 78 74 71 67 64 60 59 60 58 58 62 61 62 82 130 237 244 252 255 253 256 259 262 266 269 273
111 78 73 83 85 81 77 72 71 71 73 77 81 85 92 100 105 108 112 114 112 109 107 106 105 104 100 97 93 89 87 85 82 80 82 85 89 90 87 82 76 69 66 61 59 60 60 57 54 53 53 56 62 72 79 80 82 85 83 80 79 76 74 69 64 60 54 48 45 38 33 32 26 17 15 10 337 276 264 264 264 268 272 276 280 283 287
100 97 96 93 89 87 84 81 80 80 82 85 88 92 99 104 107 110 113 114 112 111 110 108 106 104 101 96 93 91 89 87 83 81 82 82 84 87 86 79 72 70 70 68 65 62 59 55 49 47 49 50 52 59 68 73 79 86 89 88 84 79 76 71 66 61 54 49 46 37 25 19 13 6 0 358 352 312 269 262 274 285 288 284 284 285 289
101 107 109 104 96 90 85 83 85 88 92 96 98 101 104 106 109 113 114 113 112 112 111 107 104 103 101 100 98 94 92 92 90 87 86 84 82 82 83 79 72 68 68 68 65 60 54 50 44 39 40 44 45 46 52 57 61 68 75 77 76 72 68 63 61 58 52 48 47 42 34 22 6 348 342 14 322 284 280 277 284 292 290 287 292 292 290
110 115 116 110 106 101 92 92 94 95 98 102 104 108 112 114 117 119 119 118 117 116 114 111 108 105 103 102 103 102 100 100 99 95 94 91 86 85 86 86 80 72 68 67 61 52 43 38 32 25 21 29 35 34 38 45 48 53 57 56 54 55 52 49 50 51 46 44 46 48 50 44 23 0 347 4 1 303 298 306 304 292 280 280 303 313 307
106 115 113 103 107 109 105 102 101 96 97 98 96 101 111 120 125 127 127 127 129 130 127 124 121 118 114 114 118 120 116 112 110 105 96 86 83 91 93 90 88 78 68 62 54 38 21 10 6 5 3 359 6 14 21 30 38 46 51 46 39 39 38 34 42 47 39 34 40 42 46 59 60 42 354 343 343 351 2 2 3 17 28 42 57 60 52
110 113 112 110 113 113 110 107 103 98 95 91 88 90 98 107 117 124 127 131 136 142 143 142 140 136 135 139 142 135 125 123 120 108 93 82 77 81 80 75 79 69 51 41 27 8 356 350 349 350 338 292 263 330 2 9 23 37 44 41 36 33 20 8 19 34 32 24 29 31 26 35 54 68 55 348 335 340 359 18 27 32 36 41 47 53 57
113 111 109 110 112 113 113 110 104 100 95 91 90 90 91 95 103 108 110 117 128 143 153 160 164 161 161 169 165 142 123 131 119 90 78 72 63 60 50 34 24 350 331 335 333 327 332 335 333 328 308 266 231 220 289 345 12 24 29 38 29 21 11 359 2 15 22 16 17 21 20 26 37 44 61 81 346 333 346 3 16 23 26 26 23 20 21
111 111 109 108 109 112 116 112 106 107 104 97 94 94 95 101 106 103 103 109 117 134 156 175 186 182 175 177 175 162 142 139 93 61 43 17 12 16 2 346 333 311 309 315 308 306 317 324 324 322 299 254 221 208 218 241 257 331 346 18 346 327 38 46 13 4 10 9 7 10 14 26 46 46 45 67 89 50 355 357 3 4 359 354 355 5 5
113 111 106 108 110 109 104 100 104 111 110 101 95 95 99 105 106 102 102 108 113 124 141 158 178 181 181 186 192 194 192 154 40 15 349 335 338 336 319 309 299 292 296 298 295 301 312 319 322 321 298 255 219 203 208 221 224 251 302 326 273 313 15 43 42 6 352 0 8 13 20 30 45 56 61 64 66 71 69 46 20 5 354 347 340 339 346
107 96 81 91 104 104 97 99 108 115 115 109 104 100 100 103 103 96 92 99 109 122 137 148 163 182 193 198 208 222 235 275 306 312 311 314 320 315 303 298 295 289 288 288 288 293 302 309 310 308 295 262 220 203 206 222 234 237 269 304 262 296 346 6 16 0 356 7 6 10 38 64 62 61 67 67 60 54 51 55 60 47 13 353 336 328 333
97 92 82 84 95 103 106 108 111 113 116 119 117 110 101 91 83 74 70 87 124 149 177 182 189 206 213 212 222 244 263 283 295 300 303 302 303 303 298 294 294 291 285 280 278 277 280 285 291 295 288 263 230 209 208 226 240 236 255 296 293 301 327 338 345 352 351 350 2 18 37 54 57 57 52 41 38 36 24 29 44 35 0 2 356 336 332
99 103 100 94 94 98 103 105 106 107 116 125 127 125 107 44 6 358 353 314 240 238 234 219 217 227 228 225 235 250 262 279 288 291 292 290 293 298 296 294 295 294 288 283 278 272 268 270 272 274 270 253 236 221 218 228 236 238 249 275 294 307 318 334 359 357 331 324 354 18 29 27 19 46 43 21 19 22 8 5 26 35 6 2 12 0 349
104 102 103 99 91 87 88 91 98 104 115 129 163 207 232 289 307 315 316 296 270 258 245 231 230 234 230 231 242 250 257 266 270 271 277 286 294 299 298 296 295 290 283 278 272 265 261 260 259 259 254 240 229 224 223 225 230 235 236 255 292 308 323 349 13 9 301 299 334 3 7 338 327 16 24 7 5 11 8 358 7 26 25 15 9 4 3
120 118 116 104 88 81 75 67 72 98 118 141 171 232 259 304 324 324 317 296 273 254 238 232 233 232 224 221 229 242 249 252 255 264 278 292 302 305 303 301 300 295 287 281 274 267 261 256 250 249 246 234 222 217 216 217 223 231 229 236 271 291 316 345 355 326 299 307 280 269 296 313 322 328 351 4 4 3 5 10 20 25 28 27 17 7 8
133 133 119 97 63 42 37 18 346 336 39 132 129 120 85 16 352 342 331 305 272 245 230 226 226 221 215 210 216 235 243 249 267 283 293 304 311 312 310 312 318 319 312 300 287 277 266 254 244 240 236 226 217 213 211 210 214 224 225 224 239 264 299 331 344 325 295 292 266 244 251 266 275 288 318 357 8 10 13 30 46 41 36 37 27 11 10
96 76 66 50 13 348 347 336 320 311 267 188 166 173 283 352 347 339 333 318 281 244 229 225 222 217 210 207 215 233 241 254 277 288 297 311 318 317 315 318 326 328 323 313 298 283 268 254 244 236 228 218 211 208 208 208 212 221 224 222 227 257 292 318 334 331 295 287 289 300 303 274 254 245 258 331 356 17 53 80 73 63 53 47 33 14 12
86 65 45 30 17 2 337 309 297 289 267 243 232 252 278 327 341 336 334 331 305 253 228 220 217 212 208 210 221 235 245 260 272 279 296 317 324 322 317 318 319 317 315 312 301 288 275 256 237 226 220 214 208 205 205 209 216 224 227 227 231 253 280 303 311 302 287 290 295 295 277 243 225 217 212 326 350 29 88 100 86 71 57 50 41 24 17
70 54 24 5 356 343 312 284 273 271 264 256 251 258 280 318 332 330 330 331 316 274 237 224 221 218 216 222 232 241 250 263 271 276 299 323 330 326 319 320 320 318 317 316 309 298 287 258 228 215 209 206 203 202 204 211 220 227 229 227 231 249 279 307 312 303 306 310 292 278 252 208 193 187 179 342 41 91 106 107 95 79 62 50 48 43 33
60 49 34 15 356 343 321 284 268 263 258 253 252 262 285 306 315 317 317 310 299 284 257 241 235 233 233 238 243 246 252 264 270 274 293 321 333 333 328 326 328 328 327 325 321 318 313 270 218 202 195 194 197 200 203 210 224 234 233 225 227 243 271 300 302 294 304 308 292 279 209 167 174 178 171 129 125 109 109 108 89 75 70 63 61 61 56
55 45 35 22 7 353 329 293 274 260 253 254 260 270 286 300 305 305 302 294 286 281 270 258 253 252 252 252 250 249 254 264 269 272 287 314 329 335 336 332 327 325 321 318 324 343 14 98 150 163 170 179 191 199 203 213 231 242 235 223 229 241 264 296 296 282 284 293 271 249 171 178 191 198 164 123 124 113 119 118 98 85 86 82 76 73 71
26 16 8 357 348 337 320 302 281 261 256 264 274 281 289 296 299 297 293 286 278 273 268 264 265 268 269 266 260 256 258 262 264 266 279 302 320 331 335 327 314 313 309 289 260 179 118 121 125 134 155 181 195 202 209 223 239 243 233 226 234 239 249 280 291 292 307 210 221 208 193 198 199 188 160 138 135 132 131 123 106 98 95 89 83 83 82
311 312 316 319 317 312 304 291 278 267 264 270 277 282 286 291 292 289 287 284 279 274 268 263 265 271 275 274 269 263 261 263 263 261 268 291 311 323 325 313 303 308 306 277 227 196 170 153 148 156 178 195 202 210 227 241 243 238 232 232 237 238 242 264 288 309 307 219 223 202 182 189 192 176 160 155 149 146 142 126 110 105 103 98 91 89 88
293 290 293 297 297 295 293 288 284 280 276 275 276 279 283 288 288 284 281 280 279 277 272 265 263 268 272 275 274 269 265 266 265 261 264 282 299 307 308 304 301 305 305 291 250 219 200 187 183 185 186 189 199 219 238 241 236 233 234 234 233 233 235 246 270 289 223 201 219 218 199 200 198 173 162 166 164 157 149 137 125 118 115 109 101 96 93
287 288 290 290 289 289 289 289 289 289 285 281 276 272 276 284 287 283 278 275 275 278 277 272 267 266 267 270 276 277 273 269 265 259 260 273 283 290 298 305 303 302 307 306 276 245 233 225 219 208 195 192 212 235 242 235 227 231 234 228 223 228 232 233 249 284 272 189 201 217 214 209 211 199 183 182 178 167 157 150 145 137 131 126 118 103 93
293 296 295 292 290 290 288 287 289 290 290 286 279 272 274 281 284 280 276 275 276 278 279 277 274 269 266 267 271 274 272 265 255 248 253 267 272 279 291 297 292 294 305 310 293 269 256 250 246 238 230 231 243 255 262 254 238 233 233 225 220 227 229 222 228 258 267 203 204 217 216 210 218 220 198 181 177 174 167 161 159 157 151 144 134 118 99
304 305 301 299 300 298 293 290 290 288 287 287 283 277 276 278 279 276 274 276 279 281 280 278 275 271 266 264 264 264 263 257 243 235 248 267 272 278 296 299 287 287 297 301 290 277 264 256 254 250 245 243 247 255 263 261 246 236 233 226 222 226 229 223 222 236 248 224 207 212 213 212 218 219 199 183 181 181 176 170 169 169 163 157 154 143 120
307 306 310 316 317 309 302 298 296 295 294 292 288 284 281 278 274 272 273 275 280 284 283 279 274 265 256 252 250 248 249 246 233 229 248 274 283 304 324 313 289 276 282 290 288 279 269 262 258 253 246 244 245 251 259 262 251 240 235 229 224 227 231 225 218 222 237 240 223 209 210 210 207 205 199 190 185 184 179 175 176 178 172 173 182 173 152
312 316 321 326 324 313 305 301 299 299 301 298 292 288 284 276 270 270 272 274 278 280 279 274 264 250 241 240 242 243 245 242 232 228 240 260 267 291 324 319 290 271 275 283 285 281 276 273 267 257 249 244 244 248 253 256 250 242 238 233 227 226 229 227 219 219 229 236 229 215 211 208 205 204 198 190 190 194 190 181 181 187 189 193 199 193 182
327 324 320 319 316 309 303 298 297 299 303 303 299 293 285 277 274 272 270 270 272 274 270 261 251 242 240 242 242 240 239 240 236 231 233 241 247 265 309 330 318 285 274 275 276 277 280 281 274 260 248 243 242 244 246 247 247 244 239 234 229 226 227 227 223 218 223 235 242 245 240 227 217 212 202 193 196 202 197 186 186 197 203 201 199 199 196
325 319 313 311 311 307 301 297 296 298 300 300 300 298 292 288 285 280 272 270 271 271 264 254 246 244 243 243 242 238 236 240 242 236 226 223 227 240 282 324 340 331 295 281 280 283 286 287 277 260 244 239 239 238 236 237 242 243 237 232 229 225 225 227 224 218 224 241 252 256 255 246 231 219 212 205 203 203 200 196 198 206 209 208 207 208 208
317 317 316 315 314 312 308 302 299 299 298 297 296 296 297 297 296 291 283 275 268 263 257 249 243 240 239 238 239 238 237 240 245 243 237 237 238 238 248 292 338 0 3 334 311 306 306 304 289 265 243 234 233 233 233 236 239 240 235 230 225 222 223 227 225 219 223 237 245 243 240 240 236 226 220 213 208 207 206 205 208 212 212 211 214 219 220
314 318 321 323 322 323 324 318 309 304 304 302 299 296 296 301 310 312 301 281 264 255 248 236 225 223 225 227 234 243 246 247 250 253 253 255 253 245 235 237 287 349 10 17 6 353 347 344 329 296 259 237 231 232 234 234 234 233 228 222 220 221 225 230 232 233 234 236 236 234 233 236 239 237 228 216 211 212 210 211 222 229 227 222 220 225 227
315 319 323 329 335 343 348 346 338 328 320 314 310 305 300 303 317 326 319 294 263 248 236 217 206 211 222 227 236 251 258 259 260 263 265 266 260 247 235 228 231 253 298 356 19 21 17 12 3 347 312 252 236 238 236 229 225 224 221 218 219 226 233 236 240 244 245 243 239 235 230 228 233 238 235 224 221 221 215 212 224 236 235 227 224 227 226
309 312 319 331 342 350 358 3 5 3 350 329 314 306 299 297 307 317 316 308 268 222 218 212 212 225 233 232 232 250 263 268 268 266 268 271 265 249 236 231 230 233 242 260 306 358 8 11 12 11 11 352 230 235 232 224 220 222 224 225 230 239 244 245 244 245 245 243 240 236 230 226 229 233 232 230 232 230 223 218 225 232 232 229 232 237 239